User: anonymous   Login
Location: Caltech
(34.1382°N, 118.1253°W)
Time: 02:35:54
(UTC-08:00)
Language:

Cosmos 1833 Rocket - Orbit

View from above orbital plane
View from above orbital plane
View from above satellite
View from above satellite

Ground track
Ground track

The orbit data is extracted from the following two-line orbital elements,

1 17590U 87027B   18053.21492067 -.00000138  00000-0 -44885-4 0  9991
2 17590  71.0036 343.4752 0007359 277.2417  82.7870 14.16753262599533
Epoch (UTC): 22 February 2018 05:09:29
Eccentricity: 0.0007359
inclination: 71.0036°
perigee height: 831 km
apogee height: 841 km
right ascension of ascending node: 343.4752°
argument of perigee: 277.2417°
revolutions per day: 14.16753262
mean anomaly at epoch: 82.7870°
orbit number at epoch: 59953

The dashed part of the orbit path shows where the satellite is in the earth's shadow,  

DLR